Location: Branche des Alpilles
(43.6087°N, 4.6976°E)
Time: 06:11:05
(UTC+00:00)

Cosmos 158 Rocket - Pass Details

Date: 30 November 2020
Orbit: 698 x 794 km, 74.0° (Epoch: 27 January)

Event Time Altitude Azimuth Distance (km) Brightness Sun altitude
Rises 17:55:14 0° 185° (S) 3,132 7.4 -19.2°
Reaches altitude 10° 17:57:38 10° 181° (S) 2,202 6.5 -19.7°
Maximum altitude 18:02:26 52° 105° (ESE) 882 3.9 -20.5°
Enters shadow 18:03:12 47° 73° (ENE) 938 4.0 -20.7°
